QPF
0.01 0.02 0.03 0.03 0.04 0.03 0.03 0.02 0.03 0.02 0.02 0.02 0.02 0.02 0.02 0.02 0.02 0.02 0.02 0.01 0.01 0.01 0.01 0.01 0.02 0.02 0.02 0.01 0.01 0.02 0.02 0.02 0.02 0.03 0.06 0.07 0.06 0.04 0.02 0.02 0.02 0.03 0.03
0.01 0.01 0.01 0.02 0.03 0.03 0.03 0.03 0.02 0.02 0.02 0.02 0.02 0.02 0.02 0.01 0.01 0.01 0.02 0.02 0.01 0.01 0.01 0.02 0.01 0.02 0.02 0.02 0.01 0.01 0.02 0.01 0.01 0.01 0.03 0.05 0.07 0.06 0.05 0.04 0.03 0.03 0.03
0.01 0.01 0.01 0.01 0.02 0.03 0.02 0.02 0.02 0.02 0.02 0.01 0.02 0.02 0.02 0.02 0.01 0.01 0.02 0.02 0.02 0.02 0.02 0.01 0.01 0.01 0.01 0.02 0.01 0.01 0.01 0.01 0.00 0.00 0.01 0.03 0.07 0.08 0.08 0.08 0.06 0.05 0.04
0.00 0.00 0.00 0.01 0.03 0.03 0.03 0.02 0.02 0.02 0.02 0.02 0.01 0.02 0.02 0.02 0.02 0.02 0.02 0.02 0.01 0.01 0.02 0.01 0.01 0.01 0.01 0.02 0.01 0.01 0.01 0.01 0.00 0.00 0.00 0.02 0.03 0.05 0.06 0.07 0.05 0.05 0.06
0.00 0.00 0.01 0.02 0.03 0.03 0.03 0.03 0.03 0.02 0.03 0.03 0.03 0.02 0.02 0.02 0.02 0.02 0.02 0.02 0.01 0.01 0.01 0.01 0.01 0.01 0.01 0.02 0.01 0.01 0.01 0.01 0.00 0.00 0.00 0.01 0.02 0.03 0.03 0.06 0.05 0.04 0.04
0.00 0.01 0.01 0.02 0.02 0.03 0.03 0.03 0.03 0.04 0.04 0.04 0.04 0.02 0.02 0.02 0.02 0.02 0.02 0.02 0.02 0.01 0.01 0.01 0.01 0.01 0.01 0.01 0.01 0.01 0.01 0.00 0.00 0.00 0.00 0.01 0.03 0.03 0.02 0.02 0.04 0.04 0.03
0.01 0.01 0.01 0.01 0.03 0.03 0.04 0.03 0.03 0.04 0.05 0.05 0.05 0.04 0.03 0.03 0.02 0.01 0.02 0.02 0.02 0.01 0.01 0.01 0.01 0.01 0.01 0.01 0.01 0.01 0.01 0.00 0.00 0.00 0.01 0.02 0.02 0.03 0.04 0.02 0.02 0.02 0.02
0.01 0.01 0.01 0.02 0.03 0.03 0.04 0.04 0.03 0.03 0.04 0.04 0.05 0.04 0.04 0.03 0.02 0.02 0.01 0.02 0.02 0.02 0.02 0.01 0.01 0.01 0.01 0.01 0.01 0.01 0.01 0.01 0.00 0.00 0.01 0.02 0.02 0.03 0.04 0.03 0.02 0.02 0.02
0.01 0.01 0.01 0.02 0.03 0.03 0.04 0.04 0.04 0.04 0.04 0.04 0.05 0.05 0.04 0.03 0.02 0.02 0.02 0.02 0.02 0.03 0.03 0.02 0.02 0.01 0.01 0.01 0.01 0.01 0.01 0.01 0.00 0.00 0.01 0.01 0.01 0.02 0.02 0.02 0.02 0.02 0.02
0.01 0.01 0.02 0.03 0.02 0.03 0.03 0.03 0.04 0.05 0.05 0.04 0.05 0.05 0.04 0.03 0.02 0.02 0.02 0.02 0.02 0.02 0.03 0.03 0.02 0.01 0.01 0.01 0.01 0.00 0.01 0.01 0.01 0.00 0.00 0.01 0.01 0.01 0.02 0.02 0.02 0.01 0.01
0.01 0.01 0.02 0.02 0.03 0.03 0.02 0.03 0.03 0.04 0.04 0.04 0.04 0.05 0.04 0.03 0.03 0.02 0.02 0.02 0.01 0.02 0.02 0.03 0.03 0.02 0.01 0.01 0.00 0.00 0.01 0.01 0.01 0.00 0.00 0.01 0.01 0.01 0.01 0.01 0.02 0.01 0.01
0.01 0.01 0.01 0.01 0.01 0.02 0.02 0.03 0.03 0.03 0.04 0.04 0.04 0.04 0.03 0.04 0.04 0.03 0.02 0.03 0.02 0.02 0.02 0.03 0.03 0.03 0.02 0.01 0.01 0.00 0.01 0.01 0.01 0.01 0.00 0.01 0.01 0.01 0.01 0.01 0.02 0.02 0.01
0.01 0.01 0.01 0.01 0.02 0.02 0.03 0.02 0.02 0.02 0.03 0.04 0.04 0.04 0.04 0.03 0.04 0.04 0.03 0.03 0.02 0.01 0.02 0.02 0.03 0.02 0.01 0.01 0.01 0.00 0.00 0.01 0.01 0.01 0.01 0.00 0.01 0.01 0.02 0.02 0.02 0.02 0.02
0.01 0.02 0.03 0.03 0.03 0.03 0.04 0.03 0.02 0.02 0.02 0.03 0.03 0.03 0.03 0.03 0.03 0.04 0.04 0.02 0.02 0.02 0.03 0.04 0.04 0.02 0.01 0.01 0.01 0.00 0.00 0.01 0.01 0.01 0.01 0.00 0.01 0.02 0.03 0.03 0.02 0.02 0.02
0.01 0.02 0.04 0.04 0.03 0.03 0.04 0.04 0.03 0.02 0.02 0.02 0.04 0.04 0.03 0.03 0.03 0.04 0.04 0.04 0.02 0.02 0.02 0.03 0.05 0.03 0.02 0.01 0.01 0.00 0.00 0.01 0.01 0.01 0.01 0.01 0.01 0.02 0.02 0.03 0.03 0.02 0.02
0.01 0.02 0.03 0.04 0.03 0.02 0.02 0.03 0.04 0.05 0.04 0.03 0.03 0.04 0.04 0.04 0.04 0.04 0.06 0.06 0.04 0.02 0.01 0.02 0.03 0.04 0.03 0.02 0.02 0.01 0.00 0.01 0.01 0.01 0.01 0.01 0.01 0.01 0.02 0.03 0.03 0.03 0.03
0.02 0.02 0.02 0.04 0.03 0.02 0.01 0.02 0.02 0.02 0.03 0.04 0.04 0.04 0.05 0.05 0.05 0.05 0.07 0.07 0.05 0.03 0.02 0.02 0.03 0.03 0.03 0.03 0.02 0.01 0.01 0.01 0.01 0.01 0.02 0.02 0.01 0.01 0.02 0.03 0.04 0.04 0.03
0.04 0.03 0.02 0.03 0.03 0.03 0.02 0.02 0.02 0.01 0.02 0.03 0.05 0.05 0.05 0.06 0.06 0.06 0.07 0.06 0.04 0.03 0.02 0.02 0.03 0.04 0.03 0.03 0.03 0.02 0.02 0.01 0.01 0.01 0.01 0.02 0.03 0.02 0.02 0.03 0.03 0.04 0.04
0.03 0.04 0.02 0.02 0.02 0.02 0.03 0.03 0.03 0.02 0.02 0.02 0.03 0.04 0.06 0.07 0.08 0.08 0.07 0.07 0.05 0.03 0.03 0.02 0.03 0.03 0.04 0.05 0.05 0.03 0.03 0.03 0.03 0.02 0.02 0.02 0.02 0.02 0.02 0.02 0.01 0.02 0.03
0.04 0.03 0.03 0.02 0.02 0.02 0.03 0.03 0.03 0.03 0.03 0.04 0.03 0.04 0.05 0.06 0.08 0.10 0.10 0.08 0.07 0.06 0.04 0.04 0.04 0.03 0.03 0.05 0.07 0.07 0.06 0.05 0.05 0.04 0.03 0.02 0.02 0.03 0.02 0.02 0.01 0.01 0.01
0.04 0.03 0.03 0.03 0.02 0.02 0.03 0.03 0.03 0.03 0.04 0.05 0.05 0.04 0.04 0.04 0.06 0.08 0.10 0.11 0.11 0.09 0.07 0.06 0.06 0.05 0.04 0.04 0.06 0.09 0.09 0.08 0.06 0.04 0.03 0.03 0.03 0.03 0.03 0.03 0.02 0.02 0.01
0.03 0.03 0.03 0.03 0.03 0.03 0.02 0.02 0.02 0.03 0.03 0.04 0.07 0.07 0.06 0.05 0.05 0.05 0.06 0.07 0.10 0.09 0.08 0.08 0.07 0.07 0.05 0.05 0.06 0.08 0.09 0.11 0.10 0.07 0.05 0.04 0.04 0.04 0.03 0.03 0.03 0.02 0.01
0.01 0.01 0.02 0.02 0.03 0.04 0.05 0.05 0.04 0.03 0.04 0.05 0.06 0.06 0.07 0.07 0.06 0.05 0.05 0.05 0.06 0.07 0.07 0.07 0.08 0.09 0.08 0.06 0.06 0.07 0.07 0.08 0.10 0.08 0.07 0.05 0.04 0.04 0.04 0.03 0.02 0.02 0.01
0.00 0.00 0.01 0.01 0.01 0.03 0.05 0.07 0.08 0.06 0.05 0.05 0.05 0.05 0.05 0.05 0.06 0.06 0.06 0.07 0.07 0.07 0.07 0.06 0.07 0.10 0.10 0.09 0.07 0.06 0.05 0.05 0.07 0.08 0.07 0.06 0.05 0.04 0.03 0.02 0.02 0.02 0.03
0.00 0.00 0.01 0.01 0.01 0.02 0.03 0.04 0.05 0.06 0.07 0.07 0.07 0.06 0.05 0.05 0.05 0.06 0.05 0.05 0.06 0.07 0.07 0.07 0.06 0.07 0.09 0.09 0.09 0.07 0.07 0.06 0.05 0.05 0.06 0.07 0.06 0.05 0.03 0.02 0.02 0.02 0.03
0.00 0.00 0.01 0.01 0.01 0.01 0.02 0.02 0.02 0.02 0.03 0.03 0.03 0.04 0.05 0.05 0.06 0.07 0.07 0.06 0.05 0.04 0.04 0.04 0.05 0.05 0.06 0.07 0.07 0.07 0.07 0.07 0.07 0.06 0.06 0.05 0.05 0.04 0.04 0.04 0.03 0.02 0.02
MSLP
1013.11 1013.21 1013.41 1013.72 1014.10 1014.50 1014.86 1015.14 1015.32 1015.40 1015.42 1015.42 1015.44 1015.49 1015.61 1015.77 1015.95 1016.13 1016.29 1016.42 1016.52 1016.60 1016.69 1016.79 1016.90 1017.03 1017.15 1017.25 1017.32 1017.35 1017.35 1017.32 1017.29 1017.28 1017.30 1017.34 1017.39 1017.45 1017.50 1017.52 1017.51 1017.47 1017.41
1012.80 1012.97 1013.25 1013.65 1014.11 1014.58 1014.99 1015.30 1015.49 1015.58 1015.60 1015.60 1015.63 1015.70 1015.84 1016.02 1016.22 1016.41 1016.56 1016.68 1016.78 1016.86 1016.95 1017.07 1017.21 1017.37 1017.52 1017.64 1017.71 1017.72 1017.68 1017.62 1017.56 1017.52 1017.53 1017.57 1017.65 1017.75 1017.83 1017.87 1017.88 1017.83 1017.75
1012.53 1012.76 1013.11 1013.58 1014.10 1014.62 1015.07 1015.41 1015.62 1015.73 1015.77 1015.79 1015.84 1015.94 1016.11 1016.31 1016.52 1016.71 1016.86 1016.96 1017.04 1017.12 1017.21 1017.34 1017.51 1017.70 1017.88 1018.01 1018.07 1018.06 1017.99 1017.89 1017.78 1017.72 1017.71 1017.76 1017.87 1017.99 1018.11 1018.19 1018.22 1018.18 1018.10
1012.35 1012.63 1013.04 1013.55 1014.11 1014.66 1015.13 1015.49 1015.72 1015.84 1015.91 1015.96 1016.05 1016.19 1016.38 1016.60 1016.82 1017.01 1017.15 1017.23 1017.29 1017.36 1017.46 1017.61 1017.80 1018.01 1018.20 1018.34 1018.40 1018.37 1018.26 1018.12 1017.97 1017.88 1017.86 1017.91 1018.04 1018.19 1018.35 1018.47 1018.52 1018.51 1018.45
1012.30 1012.62 1013.06 1013.60 1014.17 1014.73 1015.20 1015.56 1015.80 1015.94 1016.03 1016.11 1016.23 1016.41 1016.63 1016.87 1017.10 1017.28 1017.40 1017.48 1017.52 1017.59 1017.69 1017.85 1018.06 1018.29 1018.50 1018.64 1018.69 1018.64 1018.50 1018.32 1018.14 1018.02 1017.98 1018.03 1018.17 1018.35 1018.53 1018.69 1018.78 1018.80 1018.77
1012.36 1012.71 1013.17 1013.71 1014.28 1014.82 1015.28 1015.64 1015.87 1016.02 1016.13 1016.24 1016.39 1016.59 1016.83 1017.08 1017.32 1017.50 1017.62 1017.68 1017.73 1017.80 1017.90 1018.08 1018.30 1018.54 1018.75 1018.89 1018.93 1018.86 1018.70 1018.49 1018.28 1018.13 1018.08 1018.13 1018.27 1018.46 1018.66 1018.84 1018.97 1019.03 1019.03
1012.52 1012.87 1013.33 1013.85 1014.41 1014.93 1015.37 1015.71 1015.94 1016.09 1016.21 1016.34 1016.51 1016.73 1016.98 1017.25 1017.48 1017.67 1017.79 1017.87 1017.92 1017.99 1018.11 1018.29 1018.52 1018.76 1018.97 1019.10 1019.12 1019.03 1018.85 1018.62 1018.40 1018.24 1018.17 1018.21 1018.34 1018.53 1018.74 1018.93 1019.08 1019.17 1019.21
1012.70 1013.04 1013.48 1013.99 1014.51 1015.00 1015.42 1015.75 1015.98 1016.14 1016.27 1016.41 1016.59 1016.82 1017.09 1017.36 1017.60 1017.80 1017.93 1018.02 1018.09 1018.18 1018.31 1018.49 1018.72 1018.95 1019.14 1019.25 1019.25 1019.14 1018.95 1018.71 1018.48 1018.32 1018.24 1018.27 1018.39 1018.56 1018.77 1018.96 1019.12 1019.23 1019.30
1012.84 1013.17 1013.58 1014.05 1014.54 1015.01 1015.42 1015.74 1015.98 1016.15 1016.29 1016.45 1016.64 1016.87 1017.14 1017.41 1017.67 1017.87 1018.03 1018.14 1018.24 1018.35 1018.49 1018.67 1018.88 1019.09 1019.25 1019.32 1019.30 1019.18 1018.98 1018.75 1018.53 1018.36 1018.29 1018.32 1018.42 1018.58 1018.77 1018.94 1019.09 1019.20 1019.29
1012.91 1013.20 1013.57 1014.01 1014.48 1014.93 1015.33 1015.66 1015.91 1016.10 1016.27 1016.44 1016.64 1016.87 1017.14 1017.41 1017.67 1017.89 1018.07 1018.21 1018.34 1018.47 1018.63 1018.80 1018.99 1019.16 1019.28 1019.33 1019.28 1019.14 1018.94 1018.72 1018.52 1018.38 1018.32 1018.35 1018.45 1018.59 1018.75 1018.90 1019.03 1019.13 1019.21
1012.88 1013.14 1013.47 1013.88 1014.32 1014.76 1015.17 1015.51 1015.78 1016.00 1016.19 1016.37 1016.58 1016.81 1017.07 1017.34 1017.60 1017.84 1018.04 1018.21 1018.37 1018.52 1018.69 1018.86 1019.03 1019.16 1019.24 1019.25 1019.17 1019.03 1018.84 1018.64 1018.47 1018.36 1018.33 1018.37 1018.47 1018.60 1018.74 1018.86 1018.96 1019.03 1019.10
1012.77 1012.99 1013.29 1013.67 1014.10 1014.53 1014.94 1015.30 1015.60 1015.84 1016.05 1016.25 1016.45 1016.68 1016.93 1017.19 1017.45 1017.69 1017.91 1018.11 1018.29 1018.47 1018.65 1018.82 1018.96 1019.06 1019.11 1019.08 1018.99 1018.84 1018.66 1018.49 1018.36 1018.30 1018.31 1018.37 1018.48 1018.61 1018.73 1018.82 1018.88 1018.93 1018.96
1012.58 1012.79 1013.08 1013.44 1013.85 1014.28 1014.69 1015.06 1015.38 1015.64 1015.86 1016.07 1016.27 1016.49 1016.72 1016.96 1017.20 1017.44 1017.67 1017.89 1018.10 1018.30 1018.49 1018.66 1018.79 1018.88 1018.89 1018.85 1018.74 1018.60 1018.44 1018.31 1018.22 1018.20 1018.24 1018.34 1018.46 1018.59 1018.70 1018.77 1018.80 1018.81 1018.81
1012.36 1012.57 1012.86 1013.22 1013.62 1014.04 1014.46 1014.83 1015.16 1015.43 1015.66 1015.86 1016.05 1016.25 1016.45 1016.66 1016.89 1017.11 1017.34 1017.57 1017.80 1018.02 1018.23 1018.40 1018.54 1018.61 1018.62 1018.57 1018.46 1018.33 1018.19 1018.09 1018.03 1018.05 1018.12 1018.24 1018.39 1018.52 1018.62 1018.68 1018.69 1018.68 1018.64
1012.10 1012.35 1012.66 1013.02 1013.43 1013.85 1014.26 1014.63 1014.95 1015.23 1015.45 1015.64 1015.82 1015.99 1016.16 1016.34 1016.53 1016.73 1016.95 1017.18 1017.42 1017.65 1017.88 1018.07 1018.21 1018.30 1018.32 1018.27 1018.17 1018.05 1017.93 1017.84 1017.81 1017.85 1017.94 1018.07 1018.22 1018.35 1018.45 1018.50 1018.51 1018.48 1018.43
1011.80 1012.11 1012.46 1012.85 1013.26 1013.68 1014.08 1014.45 1014.76 1015.03 1015.25 1015.43 1015.59 1015.73 1015.87 1016.01 1016.17 1016.35 1016.54 1016.76 1017.00 1017.24 1017.48 1017.69 1017.86 1017.96 1018.00 1017.97 1017.89 1017.78 1017.67 1017.59 1017.56 1017.59 1017.67 1017.79 1017.93 1018.06 1018.15 1018.21 1018.21 1018.19 1018.14
1011.45 1011.81 1012.21 1012.64 1013.07 1013.49 1013.89 1014.24 1014.56 1014.82 1015.04 1015.21 1015.36 1015.48 1015.60 1015.71 1015.84 1015.98 1016.15 1016.35 1016.58 1016.82 1017.07 1017.30 1017.49 1017.62 1017.69 1017.68 1017.62 1017.52 1017.41 1017.32 1017.27 1017.26 1017.31 1017.40 1017.51 1017.62 1017.71 1017.76 1017.79 1017.77 1017.75
1011.00 1011.43 1011.88 1012.33 1012.78 1013.21 1013.61 1013.97 1014.28 1014.55 1014.78 1014.96 1015.11 1015.24 1015.34 1015.44 1015.54 1015.66 1015.80 1015.98 1016.19 1016.42 1016.67 1016.91 1017.12 1017.28 1017.38 1017.40 1017.36 1017.27 1017.15 1017.03 1016.94 1016.88 1016.88 1016.91 1016.98 1017.05 1017.12 1017.18 1017.22 1017.24 1017.25
1010.46 1010.93 1011.40 1011.88 1012.34 1012.78 1013.18 1013.55 1013.88 1014.17 1014.42 1014.63 1014.80 1014.95 1015.07 1015.17 1015.26 1015.36 1015.48 1015.63 1015.81 1016.03 1016.27 1016.52 1016.74 1016.93 1017.05 1017.10 1017.08 1016.99 1016.86 1016.72 1016.57 1016.46 1016.38 1016.35 1016.35 1016.39 1016.44 1016.49 1016.55 1016.60 1016.65
1009.84 1010.31 1010.79 1011.26 1011.72 1012.16 1012.57 1012.95 1013.31 1013.63 1013.92 1014.18 1014.40 1014.58 1014.74 1014.86 1014.96 1015.05 1015.16 1015.28 1015.44 1015.64 1015.86 1016.10 1016.33 1016.53 1016.67 1016.74 1016.74 1016.67 1016.53 1016.36 1016.18 1016.00 1015.86 1015.75 1015.69 1015.67 1015.69 1015.74 1015.80 1015.88 1015.98
1009.20 1009.62 1010.06 1010.51 1010.96 1011.39 1011.80 1012.20 1012.58 1012.94 1013.28 1013.59 1013.87 1014.11 1014.31 1014.47 1014.60 1014.70 1014.80 1014.91 1015.04 1015.21 1015.41 1015.63 1015.85 1016.05 1016.21 1016.31 1016.33 1016.27 1016.15 1015.96 1015.75 1015.53 1015.33 1015.16 1015.04 1014.97 1014.95 1014.98 1015.04 1015.14 1015.27
1008.60 1008.94 1009.32 1009.72 1010.12 1010.53 1010.94 1011.34 1011.74 1012.14 1012.52 1012.89 1013.22 1013.52 1013.78 1013.99 1014.15 1014.28 1014.38 1014.48 1014.59 1014.73 1014.90 1015.09 1015.29 1015.49 1015.66 1015.78 1015.83 1015.80 1015.69 1015.52 1015.30 1015.06 1014.82 1014.60 1014.43 1014.31 1014.25 1014.26 1014.31 1014.41 1014.54
1008.15 1008.39 1008.68 1009.00 1009.35 1009.72 1010.11 1010.50 1010.91 1011.33 1011.74 1012.14 1012.53 1012.88 1013.18 1013.44 1013.64 1013.79 1013.91 1014.00 1014.09 1014.20 1014.33 1014.49 1014.67 1014.86 1015.03 1015.16 1015.24 1015.24 1015.17 1015.03 1014.83 1014.58 1014.33 1014.09 1013.88 1013.73 1013.63 1013.60 1013.63 1013.71 1013.83
1007.93 1008.06 1008.25 1008.49 1008.78 1009.10 1009.46 1009.83 1010.23 1010.64 1011.06 1011.47 1011.88 1012.25 1012.59 1012.88 1013.11 1013.29 1013.42 1013.51 1013.59 1013.67 1013.76 1013.88 1014.03 1014.19 1014.35 1014.49 1014.59 1014.63 1014.60 1014.50 1014.33 1014.11 1013.87 1013.62 1013.39 1013.21 1013.08 1013.01 1013.00 1013.06 1013.15
1007.98 1008.02 1008.12 1008.29 1008.52 1008.80 1009.11 1009.45 1009.81 1010.19 1010.59 1010.98 1011.38 1011.76 1012.11 1012.41 1012.66 1012.86 1012.99 1013.08 1013.14 1013.19 1013.24 1013.32 1013.42 1013.55 1013.68 1013.82 1013.94 1014.00 1014.01 1013.95 1013.83 1013.64 1013.41 1013.17 1012.93 1012.73 1012.57 1012.47 1012.43 1012.44 1012.50
1008.30 1008.27 1008.32 1008.44 1008.62 1008.86 1009.12 1009.42 1009.74 1010.07 1010.42 1010.77 1011.13 1011.48 1011.82 1012.12 1012.37 1012.56 1012.70 1012.78 1012.82 1012.83 1012.84 1012.87 1012.91 1012.99 1013.10 1013.22 1013.33 1013.41 1013.44 1013.41 1013.32 1013.16 1012.95 1012.72 1012.48 1012.26 1012.08 1011.95 1011.88 1011.85 1011.88
Thickness
5723 5723 5720 5721 5721 5721 5721 5722 5722 5721 5721 5722 5722 5722 5722 5721 5721 5722 5722 5723 5723 5723 5724 5724 5724 5724 5724 5724 5724 5725 5725 5725 5725 5725 5725 5724 5724 5724 5724 5724 5725 5725 5723
5722 5720 5717 5718 5718 5718 5718 5718 5718 5718 5718 5718 5718 5718 5718 5718 5718 5718 5719 5719 5720 5720 5720 5721 5721 5720 5720 5720 5721 5721 5721 5721 5721 5721 5721 5721 5720 5720 5720 5720 5720 5720 5719
5718 5717 5714 5714 5714 5715 5715 5715 5714 5714 5714 5714 5715 5714 5715 5715 5715 5715 5715 5716 5716 5716 5717 5717 5717 5717 5716 5716 5716 5716 5716 5717 5717 5717 5718 5719 5717 5716 5716 5716 5716 5715 5715
5713 5713 5712 5710 5710 5710 5711 5711 5711 5711 5711 5710 5710 5710 5710 5710 5711 5711 5711 5712 5712 5712 5713 5713 5713 5713 5712 5712 5712 5712 5712 5712 5713 5714 5716 5716 5714 5712 5712 5712 5711 5711 5711
5708 5708 5707 5706 5706 5706 5706 5706 5706 5706 5706 5706 5706 5706 5706 5706 5706 5707 5707 5707 5708 5708 5709 5709 5709 5709 5708 5708 5708 5708 5707 5708 5709 5710 5711 5711 5710 5708 5707 5707 5707 5706 5706
5703 5703 5702 5701 5701 5701 5701 5702 5702 5701 5701 5701 5701 5701 5701 5701 5701 5702 5702 5703 5703 5704 5704 5704 5705 5704 5704 5704 5703 5703 5703 5703 5705 5706 5707 5706 5705 5703 5703 5703 5702 5702 5701
5697 5697 5696 5695 5696 5696 5696 5696 5696 5696 5696 5695 5695 5695 5695 5695 5696 5696 5697 5698 5698 5699 5699 5699 5700 5700 5699 5699 5699 5698 5698 5699 5701 5701 5701 5701 5699 5698 5698 5698 5697 5697 5696
5691 5690 5690 5689 5690 5690 5690 5691 5691 5691 5690 5690 5689 5689 5689 5689 5690 5691 5691 5692 5693 5693 5694 5694 5695 5694 5694 5694 5693 5693 5693 5694 5696 5696 5696 5695 5693 5693 5693 5692 5692 5691 5691
5684 5684 5684 5684 5684 5684 5685 5685 5685 5685 5684 5684 5683 5683 5682 5683 5684 5685 5686 5686 5687 5688 5688 5689 5689 5688 5688 5688 5688 5687 5688 5689 5692 5691 5690 5689 5687 5687 5687 5687 5686 5686 5685
5677 5678 5678 5679 5679 5679 5679 5679 5679 5678 5678 5677 5676 5676 5676 5676 5677 5678 5680 5680 5681 5682 5682 5683 5683 5682 5683 5682 5682 5682 5683 5684 5686 5685 5685 5683 5682 5682 5682 5681 5680 5680 5679
5671 5671 5672 5672 5673 5673 5673 5672 5672 5671 5671 5671 5670 5669 5670 5671 5672 5672 5673 5674 5675 5676 5676 5677 5677 5676 5677 5676 5676 5676 5677 5680 5680 5679 5678 5677 5676 5676 5675 5675 5674 5674 5673
5665 5665 5665 5666 5666 5666 5666 5666 5666 5665 5664 5664 5664 5664 5664 5665 5666 5666 5666 5667 5668 5669 5670 5670 5670 5671 5671 5672 5671 5671 5673 5674 5674 5673 5672 5670 5670 5670 5670 5669 5668 5668 5667
5660 5659 5659 5659 5659 5659 5659 5660 5659 5659 5658 5658 5658 5658 5658 5658 5659 5659 5660 5661 5662 5663 5665 5665 5665 5666 5667 5667 5667 5667 5668 5668 5668 5667 5666 5664 5664 5664 5664 5663 5662 5662 5661
5653 5652 5652 5652 5652 5653 5653 5653 5652 5652 5651 5651 5651 5651 5652 5652 5653 5653 5655 5656 5657 5658 5659 5660 5660 5661 5661 5661 5662 5662 5662 5662 5662 5661 5659 5658 5657 5657 5657 5657 5656 5656 5655
5647 5646 5645 5645 5645 5645 5645 5645 5645 5644 5644 5644 5644 5644 5645 5645 5646 5647 5648 5649 5651 5652 5653 5654 5655 5655 5655 5655 5655 5655 5656 5656 5655 5654 5653 5651 5650 5650 5650 5650 5650 5649 5648
5640 5639 5638 5638 5638 5638 5638 5638 5637 5637 5636 5636 5636 5637 5637 5638 5639 5640 5641 5643 5644 5645 5646 5646 5648 5648 5648 5648 5648 5648 5648 5648 5648 5647 5646 5644 5643 5643 5643 5643 5642 5642 5641
5634 5632 5632 5631 5630 5630 5630 5630 5630 5629 5629 5629 5628 5629 5629 5630 5631 5632 5634 5635 5637 5637 5638 5639 5640 5641 5640 5641 5641 5641 5641 5641 5641 5640 5639 5638 5637 5636 5635 5635 5635 5634 5634
5627 5626 5625 5623 5623 5623 5623 5622 5622 5622 5621 5621 5620 5621 5621 5622 5622 5624 5626 5628 5629 5630 5631 5632 5633 5633 5634 5633 5633 5633 5633 5632 5632 5632 5632 5631 5630 5629 5628 5627 5627 5626 5626
5619 5618 5617 5616 5616 5615 5615 5614 5613 5613 5613 5612 5612 5612 5613 5613 5614 5615 5617 5619 5620 5622 5623 5624 5625 5626 5626 5625 5625 5624 5624 5624 5624 5624 5624 5623 5622 5622 5621 5619 5618 5618 5617
5611 5610 5609 5608 5608 5607 5606 5605 5605 5604 5603 5603 5603 5603 5603 5604 5605 5606 5608 5609 5611 5613 5614 5615 5616 5617 5617 5617 5616 5615 5615 5615 5615 5616 5616 5616 5614 5614 5613 5612 5611 5610 5608
5604 5603 5602 5601 5600 5599 5599 5598 5597 5596 5595 5594 5593 5593 5593 5594 5596 5597 5598 5600 5602 5604 5605 5607 5607 5608 5608 5608 5607 5606 5605 5605 5606 5607 5608 5608 5607 5606 5605 5604 5603 5602 5601
5596 5595 5593 5593 5591 5590 5590 5589 5588 5587 5585 5584 5583 5583 5583 5584 5586 5587 5589 5591 5592 5593 5595 5597 5598 5599 5598 5598 5600 5600 5600 5599 5598 5598 5598 5599 5599 5598 5597 5595 5594 5593 5592
5588 5586 5585 5584 5582 5581 5580 5579 5577 5576 5575 5574 5574 5574 5574 5575 5576 5578 5579 5581 5582 5583 5586 5588 5589 5590 5591 5590 5591 5593 5596 5598 5594 5591 5590 5589 5589 5589 5588 5586 5585 5584 5583
5579 5577 5576 5575 5573 5572 5570 5570 5570 5569 5568 5567 5566 5565 5565 5566 5566 5568 5570 5571 5572 5574 5576 5578 5580 5581 5583 5583 5582 5583 5585 5588 5587 5585 5582 5581 5580 5579 5578 5577 5576 5575 5574
5569 5567 5566 5565 5563 5562 5561 5561 5561 5560 5560 5558 5557 5557 5557 5557 5557 5559 5560 5562 5563 5565 5566 5568 5569 5571 5573 5574 5575 5574 5574 5574 5576 5577 5576 5573 5570 5569 5568 5568 5567 5565 5564
5559 5557 5556 5555 5553 5552 5551 5551 5551 5551 5551 5549 5549 5549 5548 5548 5548 5550 5552 5553 5555 5556 5557 5559 5560 5562 5563 5564 5565 5565 5565 5566 5566 5567 5567 5564 5563 5561 5558 5557 5556 5555 5553